TimeEST,TemperatureF,Dew PointF,Humidity,Sea Level PressureIn,VisibilityMPH,Wind Direction,Wind SpeedMPH,Gust SpeedMPH,PrecipitationIn,Events,Conditions,WindDirDegrees,DateUTC
12:52 AM,36.0,30.9,82,29.97,10.0,Calm,Calm,-,N/A,,Clear,0,2012-12-07 05:52:00
1:52 AM,37.0,32.0,82,29.96,10.0,Calm,Calm,-,N/A,,Mostly Cloudy,0,2012-12-07 06:52:00
2:52 AM,36.0,32.0,86,29.97,10.0,Calm,Calm,-,N/A,,Overcast,0,2012-12-07 07:52:00
3:52 AM,37.0,32.0,82,29.97,10.0,Calm,Calm,-,N/A,,Mostly Cloudy,0,2012-12-07 08:52:00
4:52 AM,36.0,33.1,89,29.96,9.0,SSW,4.6,-,N/A,,Overcast,210,2012-12-07 09:52:00
5:52 AM,37.9,34.0,86,29.95,9.0,Calm,Calm,-,N/A,,Overcast,0,2012-12-07 10:52:00
6:52 AM,37.9,35.1,89,29.96,9.0,Calm,Calm,-,N/A,,Overcast,0,2012-12-07 11:52:00
7:52 AM,39.9,36.0,86,29.98,9.0,SW,3.5,-,0.00,Rain,Light Rain,230,2012-12-07 12:52:00
8:52 AM,39.9,36.0,86,29.98,4.0,Calm,Calm,-,0.00,Rain,Light Rain,0,2012-12-07 13:52:00
9:22 AM,39.2,37.4,93,29.97,2.5,SW,3.5,-,0.03,Rain,Light Rain,220,2012-12-07 14:22:00
9:32 AM,39.2,37.4,93,29.98,3.0,SW,3.5,-,0.03,Rain,Light Rain,220,2012-12-07 14:32:00
9:52 AM,39.9,37.9,93,30.00,3.0,SW,3.5,-,0.03,Rain,Light Rain,230,2012-12-07 14:52:00
10:11 AM,39.2,37.4,93,29.98,2.5,WSW,3.5,-,0.01,Rain,Light Rain,250,2012-12-07 15:11:00
10:49 AM,41.0,39.2,93,29.97,3.0,Calm,Calm,-,0.03,Rain,Light Rain,0,2012-12-07 15:49:00
10:52 AM,42.1,39.0,89,29.98,2.5,West,4.6,-,0.03,Rain,Light Rain,260,2012-12-07 15:52:00
11:38 AM,42.8,39.2,87,29.96,2.5,WSW,4.6,-,0.00,,Overcast,240,2012-12-07 16:38:00
11:52 AM,42.1,39.9,92,29.97,2.5,SW,4.6,-,0.00,,Overcast,230,2012-12-07 16:52:00
12:15 PM,42.8,39.2,87,29.94,2.5,SW,3.5,-,N/A,,Overcast,230,2012-12-07 17:15:00
12:25 PM,42.8,39.2,87,29.93,2.5,Calm,Calm,-,N/A,,Overcast,0,2012-12-07 17:25:00
12:52 PM,43.0,39.9,89,29.95,2.5,Calm,Calm,-,N/A,,Overcast,0,2012-12-07 17:52:00
1:52 PM,44.1,39.9,85,29.93,2.5,South,3.5,-,N/A,,Overcast,190,2012-12-07 18:52:00
2:22 PM,44.6,41.0,87,29.91,3.0,SSW,3.5,-,N/A,,Overcast,210,2012-12-07 19:22:00
2:50 PM,44.6,41.0,87,29.90,4.0,Calm,Calm,-,N/A,,Overcast,0,2012-12-07 19:50:00
2:52 PM,45.0,41.0,86,29.92,4.0,Calm,Calm,-,N/A,,Overcast,0,2012-12-07 19:52:00
3:27 PM,44.6,41.0,87,29.90,4.0,Calm,Calm,-,N/A,,Overcast,0,2012-12-07 20:27:00
3:52 PM,45.0,41.0,86,29.92,4.0,Calm,Calm,-,N/A,,Overcast,0,2012-12-07 20:52:00
4:52 PM,45.0,41.0,86,29.92,3.0,Calm,Calm,-,N/A,,Overcast,0,2012-12-07 21:52:00
4:59 PM,44.6,41.0,87,29.90,4.0,NNE,3.5,-,N/A,,Overcast,20,2012-12-07 21:59:00
5:23 PM,44.6,41.0,87,29.90,4.0,NE,3.5,-,N/A,,Overcast,40,2012-12-07 22:23:00
5:52 PM,44.1,41.0,89,29.92,4.0,Calm,Calm,-,N/A,,Overcast,0,2012-12-07 22:52:00
6:23 PM,44.6,41.0,87,29.91,3.0,NE,3.5,-,N/A,,Overcast,50,2012-12-07 23:23:00
6:52 PM,44.1,41.0,89,29.92,2.5,Calm,Calm,-,0.00,Rain,Light Rain,0,2012-12-07 23:52:00
7:52 PM,43.0,42.1,97,29.92,1.8,ENE,3.5,-,0.01,Rain,Light Rain,60,2012-12-08 00:52:00
8:27 PM,42.8,42.8,100,29.90,1.8,ENE,4.6,-,0.00,Rain,Light Rain,60,2012-12-08 01:27:00
8:37 PM,42.8,42.8,100,29.90,1.8,ENE,4.6,-,0.00,Rain,Light Rain,60,2012-12-08 01:37:00
8:52 PM,43.0,42.1,97,29.91,1.5,ENE,4.6,-,0.01,,Overcast,70,2012-12-08 01:52:00
9:25 PM,42.8,41.0,93,29.89,1.2,ENE,4.6,-,0.00,Rain,Light Rain,60,2012-12-08 02:25:00
9:35 PM,42.8,41.0,93,29.89,1.8,ENE,4.6,-,0.00,Rain,Light Rain,70,2012-12-08 02:35:00
9:52 PM,42.1,41.0,96,29.90,1.8,ENE,5.8,-,0.01,Rain,Light Rain,70,2012-12-08 02:52:00
10:52 PM,42.1,41.0,96,29.88,1.8,ENE,5.8,-,0.01,,Overcast,70,2012-12-08 03:52:00
11:35 PM,42.8,39.2,87,29.87,2.0,NE,5.8,-,0.00,Rain,Light Rain,40,2012-12-08 04:35:00
11:52 PM,42.1,39.9,92,29.88,2.0,ENE,5.8,-,0.01,Rain,Light Rain,70,2012-12-08 04:52:00